Location: Pine Mountain Observatory
(43.7910°N, 120.9377°W)
Time: 12:32:53
(UTC-07:00)

Explorer 11/Cluster Stage 4 - Pass Details

Date: 29 May 2019
Orbit: 467 x 1260 km, 28.8° (Epoch: 16 June)

Event Time Altitude Azimuth Distance (km) Brightness Sun altitude
Rises 04:03:42 0° 245° (WSW) 3,651 - -12.4°
Reaches altitude 10° 04:07:34 10° 226° (SW) 2,523 - -11.9°
Exits shadow 04:09:28 15° 209° (SSW) 2,123 8.2 -11.7°
Maximum altitude 04:11:06 16° 190° (S) 1,948 8.1 -11.5°
Drops below altitude 10° 04:14:16 10° 152° (SSE) 2,188 8.7 -11.1°
Sets 04:17:17 0° 131° (SE) 2,951 9.6 -10.7°
